Cordova, AK

5:16 AM AKST on November 24, 2017 (GMT -0900)
Cordova-Smith

Weather History for PACV - January, 2013

Change the Weather History Date:

Sunday, January 6, 2013

  Actual Average Record
Temperature  
Mean Temperature 38 °F -  
Max Temperature 39 °F 31 °F 46 °F (1981)
Min Temperature 36 °F 15 °F -15 °F (1965)
Degree Days  
Heating Degree Days 28    
Moisture  
Dew Point 31 °F    
Average Humidity 78    
Maximum Humidity 89    
Minimum Humidity 65    
Precipitation  
Precipitation 0.22 in - - ()
Sea Level Pressure  
Sea Level Pressure 29.36 in    
Wind  
Wind Speed 8 mph (East)    
Max Wind Speed 23 mph    
Max Gust Speed 39 mph    
Visibility 10 miles    
Events Rain    
Averages and records for this station are not official NWS values.
T = Trace of Precipitation, MM = Missing Value Source: NWS Daily Summary

Daily Weather History Graph

Daily Weather History Graph

Search for Another Location

Airport or City:

Trip Planner

Search our weather history database for the weather conditions in past years. The results will help you decide how hot, cold, wet, or windy it might be!

Date:

Astronomy

Jan. 06, 2013 Rise Set
Actual Time 9:44 AM AKST 3:51 PM AKST
Civil Twilight 8:47 AM AKST 4:48 PM AKST
Nautical Twilight 7:51 AM AKST 5:45 PM AKST
Astronomical Twilight 6:59 AM AKST 6:37 PM AKST
Moon 3:31 AM AKST (1/6) 11:58 AM AKST (1/6)
Length of Visible Light 8h 01m
Length of Day
6h 07m
Waning Crescent, 31% of the Moon is Illuminated
Jan 6
Waning Crescent
Jan 11
New
Jan 18
First Quarter
Jan 26
Full
Feb 3
Last Quarter

Hourly Weather History & Observations

Time (AKST) Temp. Windchill Dew Point Humidity Pressure Visibility Wind Dir Wind Speed Gust Speed Precip Events Conditions
12:53 AM 37.9 °F 33.5 °F 32.0 °F 79% 29.49 in 10.0 mi Variable 5.8 mph - 0.00 in Rain Light Rain
1:00 AM 37.4 °F 32.8 °F 32.0 °F 81% 29.49 in 10.0 mi East 5.8 mph - 0.00 in Rain Light Rain
1:53 AM 37.0 °F 34.5 °F 30.9 °F 79% 29.49 in 10.0 mi East 3.5 mph - 0.00 in   Overcast
3:53 AM 37.0 °F 32.4 °F 30.9 °F 79% 29.48 in 10.0 mi East 5.8 mph - N/A   Mostly Cloudy
4:53 AM 37.9 °F 34.4 °F 30.0 °F 73% 29.48 in 10.0 mi East 4.6 mph - N/A   Overcast
5:53 AM 37.9 °F 32.7 °F 30.0 °F 73% 29.47 in 10.0 mi East 6.9 mph - N/A   Overcast
6:53 AM 37.9 °F 32.1 °F 30.9 °F 76% 29.47 in 10.0 mi East 8.1 mph - 0.00 in Rain Light Rain
7:53 AM 39.0 °F 34.0 °F 28.9 °F 67% 29.45 in 10.0 mi East 6.9 mph - 0.00 in   Overcast
8:53 AM 39.0 °F 31.8 °F 28.0 °F 65% 29.44 in 10.0 mi East 11.5 mph 20.7 mph N/A   Overcast
9:39 AM 39.2 °F 30.8 °F 28.4 °F 65% 29.44 in 10.0 mi East 15.0 mph 21.9 mph 0.00 in Rain Light Rain
9:53 AM 37.9 °F 32.1 °F 30.0 °F 73% 29.44 in 10.0 mi East 8.1 mph - 0.00 in Rain Light Rain
10:53 AM 37.0 °F 28.5 °F 30.0 °F 76% 29.44 in 10.0 mi East 13.8 mph 27.6 mph 0.00 in Rain Light Rain
11:30 AM 37.4 °F 29.3 °F 30.2 °F 75% 29.42 in 10.0 mi ESE 12.7 mph 24.2 mph 0.01 in Rain Light Rain
11:53 AM 37.0 °F 28.5 °F 30.9 °F 79% 29.42 in 10.0 mi ESE 13.8 mph 21.9 mph 0.01 in Rain Light Rain
12:53 PM 37.0 °F 28.1 °F 32.0 °F 82% 29.41 in 10.0 mi East 15.0 mph 24.2 mph 0.02 in   Overcast
1:53 PM 36.0 °F 29.6 °F 32.0 °F 86% 29.38 in 9.0 mi East 8.1 mph 18.4 mph 0.01 in Rain Light Rain
2:53 PM 37.9 °F 32.1 °F 32.0 °F 79% 29.34 in 10.0 mi East 8.1 mph - 0.00 in   Overcast
3:53 PM 37.9 °F 33.5 °F 30.9 °F 76% 29.31 in 10.0 mi East 5.8 mph 18.4 mph 0.00 in   Overcast
4:53 PM 37.0 °F 32.4 °F 32.0 °F 82% 29.28 in 10.0 mi East 5.8 mph - 0.00 in Rain Light Rain
5:37 PM 37.4 °F 31.4 °F 32.0 °F 81% 29.24 in 10.0 mi East 8.1 mph 17.3 mph 0.00 in Rain Light Rain
5:53 PM 39.0 °F 32.8 °F 30.9 °F 73% 29.24 in 10.0 mi East 9.2 mph 31.1 mph 0.01 in Rain Light Rain
6:53 PM 39.0 °F 28.5 °F 32.0 °F 76% 29.20 in 7.0 mi East 23.0 mph 39.1 mph 0.01 in Rain Light Rain
7:45 PM 37.4 °F 27.2 °F 33.8 °F 87% 29.20 in 6.0 mi ESE 19.6 mph 29.9 mph 0.07 in Rain Rain
7:53 PM 37.0 °F 27.4 °F 33.1 °F 86% 29.20 in 6.0 mi ESE 17.3 mph 28.8 mph 0.08 in Rain Rain
8:53 PM 36.0 °F 27.5 °F 33.1 °F 89% 29.22 in 8.0 mi ESE 12.7 mph 23.0 mph 0.07 in Rain Light Rain
9:53 PM 37.0 °F 32.4 °F 33.1 °F 86% 29.25 in 10.0 mi ENE 5.8 mph - 0.01 in   Overcast
10:53 PM 36.0 °F 30.3 °F 33.1 °F 89% 29.26 in 10.0 mi East 6.9 mph - 0.00 in   Overcast
11:53 PM 36.0 °F 30.3 °F 32.0 °F 86% 29.26 in 10.0 mi East 6.9 mph - 0.00 in   Overcast